Weather History for Buena Vista, CO

Change the Weather History Date:

Monday, May 5, 2014

  Actual Average (KLXV) Record (KLXV)
Temperature  
Mean Temperature 54 °F -  
Max Temperature 70 °F 50 °F 66 °F (2000)
Min Temperature 38 °F 24 °F 12 °F (1991)
Degree Days  
Heating Degree Days 11 28  
Month to date heating degree days 142  
Since 1 July heating degree days 10143  
Cooling Degree Days 0 0  
Month to date cooling degree days 0  
Year to date cooling degree days 0  
Growing Degree Days 4 (Base 50)    
Moisture  
Dew Point 8 °F    
Average Humidity 17    
Maximum Humidity 38    
Minimum Humidity 8    
Precipitation  
Precipitation 0.00 in 0.03 in 0.37 in (2001)
Month to date precipitation 0.16  
Year to date precipitation 3.49  
Sea Level Pressure  
Sea Level Pressure 30.05 in    
Wind  
Wind Speed 8 mph (WSW)    
Max Wind Speed 22 mph    
Max Gust Speed 32 mph    
Visibility 10 miles    
Events      
T = Trace of Precipitation, MM = Missing Value Source: NWS Daily Summary

Daily Weather History Graph

Daily Weather History Graph

Search for Another Location

Airport:

Trip Planner

Search our weather history database for the weather conditions in past years. The results will help you decide how hot, cold, wet, or windy it might be!

Date:

Astronomy

May. 05, 2014 Rise Set
Actual Time 6:02 AM MDT 8:00 PM MDT
Civil Twilight 5:33 AM MDT 8:29 PM MDT
Nautical Twilight 4:57 AM MDT 9:05 PM MDT
Astronomical Twilight 4:19 AM MDT 9:43 PM MDT
Moon 11:24 AM MDT (5/5) 12:46 AM MDT (5/5)
Length of Visible Light 14h 56m
Length of Day
13h 58m
Waxing Crescent, 37% of the Moon is Illuminated
May 5
Waxing Crescent
May 6
First Quarter
May 14
Full
May 21
Last Quarter
May 28
New

Hourly Weather History & Observations

Time (MDT) Temp. Windchill Dew Point Humidity Pressure Visibility Wind Dir Wind Speed Gust Speed Precip Events Conditions
12:15 AM 56.3 °F - 6.6 °F 14% 30.11 in 10.0 mi WSW 15.0 mph - N/A   Clear
12:35 AM 55.8 °F - 6.4 °F 14% 30.11 in 10.0 mi WSW 11.5 mph 20.7 mph N/A   Clear
12:55 AM 56.5 °F - 6.1 °F 13% 30.12 in 10.0 mi West 16.1 mph 26.5 mph N/A   Clear
1:15 AM 55.2 °F - 6.3 °F 14% 30.12 in 10.0 mi WSW 9.2 mph - N/A   Clear
1:35 AM 54.3 °F - 6.4 °F 15% 30.12 in 10.0 mi West 10.4 mph - N/A   Clear
1:55 AM 51.8 °F - 8.1 °F 17% 30.11 in 10.0 mi WSW 4.6 mph - N/A   Clear
2:15 AM 48.2 °F - 8.8 °F 20% 30.11 in 10.0 mi NNE 3.5 mph - N/A   Clear
2:35 AM 47.8 °F - 10.9 °F 23% 30.11 in 10.0 mi Calm Calm - N/A   Clear
2:55 AM 45.1 °F - 12.2 °F 26% 30.11 in 10.0 mi Calm Calm - N/A   Clear
3:15 AM 43.2 °F - 11.8 °F 28% 30.12 in 10.0 mi Calm Calm - N/A   Clear
3:35 AM 42.6 °F 39.0 °F 12.2 °F 29% 30.12 in 10.0 mi West 5.8 mph - N/A   Clear
3:55 AM 39.4 °F 33.8 °F 11.8 °F 32% 30.12 in 10.0 mi WNW 8.1 mph - N/A   Clear
4:15 AM 39.9 °F 35.1 °F 11.8 °F 32% 30.12 in 10.0 mi WNW 6.9 mph - N/A   Clear
4:35 AM 38.3 °F 33.2 °F 12.6 °F 35% 30.12 in 10.0 mi WNW 6.9 mph - N/A   Clear
4:55 AM 39.7 °F 36.5 °F 14.4 °F 36% 30.12 in 10.0 mi WNW 4.6 mph - N/A   Clear
5:15 AM 39.7 °F 36.5 °F 14.2 °F 35% 30.12 in 10.0 mi West 4.6 mph - N/A   Clear
5:35 AM 38.3 °F 34.8 °F 13.6 °F 37% 30.13 in 10.0 mi WNW 4.6 mph - N/A   Clear
5:55 AM 38.3 °F 33.9 °F 14.0 °F 37% 30.13 in 10.0 mi West 5.8 mph - N/A   Clear
6:15 AM 38.3 °F 35.9 °F 14.5 °F 38% 30.14 in 10.0 mi SSE 3.5 mph - N/A   Clear
6:35 AM 39.4 °F 37.2 °F 15.6 °F 38% 30.14 in 10.0 mi North 3.5 mph - N/A   Clear
6:55 AM 39.9 °F - 15.8 °F 38% 30.15 in 10.0 mi Calm Calm - N/A   Clear
7:15 AM 40.3 °F - 15.8 °F 37% 30.15 in 10.0 mi Calm Calm - N/A   Clear
7:35 AM 41.5 °F - 17.8 °F 38% 30.15 in 10.0 mi Calm Calm - N/A   Clear
7:55 AM 43.0 °F - 16.5 °F 34% 30.15 in 10.0 mi Calm Calm - N/A   Clear
8:15 AM 44.6 °F - 16.3 °F 32% 30.15 in 10.0 mi Calm Calm - N/A   Clear
8:35 AM 47.3 °F - 14.9 °F 27% 30.15 in 10.0 mi Calm Calm - N/A   Clear
8:55 AM 49.5 °F - 15.3 °F 26% 30.15 in 10.0 mi Calm Calm - N/A   Clear
9:15 AM 52.3 °F - 14.4 °F 22% 30.14 in 10.0 mi East 3.5 mph - N/A   Clear
9:35 AM 55.9 °F - 13.1 °F 18% 30.14 in 10.0 mi ESE 6.9 mph - N/A   Clear
9:55 AM 58.5 °F - 7.9 °F 13% 30.13 in 10.0 mi East 4.6 mph - N/A   Clear
10:15 AM 60.8 °F - 4.6 °F 11% 30.12 in 10.0 mi East 6.9 mph - N/A   Clear
10:35 AM 62.2 °F - 4.3 °F 10% 30.11 in 10.0 mi ENE 4.6 mph - N/A   Clear
10:55 AM 64.2 °F - 3.9 °F 9% 30.11 in 10.0 mi NNE 3.5 mph - N/A   Clear
11:15 AM 64.2 °F - 3.6 °F 9% 30.10 in 10.0 mi WSW 16.1 mph 24.2 mph N/A   Clear
11:35 AM 64.4 °F - 4.3 °F 9% 30.09 in 10.0 mi SW 16.1 mph 32.2 mph N/A   Clear
12:15 PM 66.2 °F - 5.2 °F 9% 30.09 in 10.0 mi SW 11.5 mph 21.9 mph N/A   Clear
12:35 PM 65.8 °F - 3.9 °F 9% 30.07 in 10.0 mi West 17.3 mph 26.5 mph N/A   Clear
12:55 PM 65.5 °F - 4.5 °F 9% 30.07 in 10.0 mi WSW 15.0 mph 25.3 mph N/A   Clear
1:15 PM 65.5 °F - 5.2 °F 9% 30.05 in 10.0 mi WSW 9.2 mph 18.4 mph N/A   Clear
1:35 PM 66.2 °F - 5.2 °F 9% 30.05 in 10.0 mi West 11.5 mph 23.0 mph N/A   Clear
1:55 PM 65.7 °F - 5.9 °F 10% 30.04 in 10.0 mi West 8.1 mph - N/A   Clear
2:15 PM 67.1 °F - 7.2 °F 10% 30.03 in 10.0 mi SSW 6.9 mph - N/A   Clear
2:55 PM 68.0 °F - 7.2 °F 9% 30.01 in 10.0 mi South 13.8 mph 20.7 mph N/A   Clear
3:15 PM 68.7 °F - 8.1 °F 9% 30.00 in 10.0 mi SW 8.1 mph 20.7 mph N/A   Clear
3:35 PM 67.6 °F - 6.6 °F 9% 29.99 in 10.0 mi South 11.5 mph 21.9 mph N/A   Clear
3:55 PM 70.7 °F - 6.3 °F 8% 29.98 in 10.0 mi SW 16.1 mph 21.9 mph N/A   Clear
4:15 PM 70.7 °F - 5.9 °F 8% 29.97 in 10.0 mi SW 16.1 mph 23.0 mph N/A   Clear
4:35 PM 70.2 °F - 6.8 °F 8% 29.96 in 10.0 mi West 17.3 mph 26.5 mph N/A   Clear
4:55 PM 69.3 °F - 6.1 °F 8% 29.96 in 10.0 mi WSW 10.4 mph 24.2 mph N/A   Clear
5:15 PM 70.0 °F - 5.5 °F 8% 29.95 in 10.0 mi WSW 19.6 mph 24.2 mph N/A   Clear
5:35 PM 67.6 °F - 4.8 °F 8% 29.95 in 10.0 mi WSW 21.9 mph 29.9 mph N/A   Clear
5:55 PM 67.6 °F - 4.6 °F 8% 29.95 in 10.0 mi West 16.1 mph 21.9 mph N/A   Clear
6:15 PM 65.8 °F - 4.1 °F 9% 29.95 in 10.0 mi West 13.8 mph - N/A   Clear
6:35 PM 64.4 °F - 4.6 °F 9% 29.95 in 10.0 mi WSW 13.8 mph 24.2 mph N/A   Clear
6:55 PM 63.5 °F - 5.7 °F 10% 29.95 in 10.0 mi West 8.1 mph 18.4 mph N/A   Clear
7:15 PM 62.8 °F - 5.9 °F 11% 29.95 in 10.0 mi West 6.9 mph - N/A   Clear
7:35 PM 61.7 °F - 5.5 °F 11% 29.95 in 10.0 mi WSW 5.8 mph - N/A   Clear
7:55 PM 60.8 °F - 3.7 °F 10% 29.95 in 10.0 mi South 5.8 mph - N/A   Clear
8:15 PM 61.0 °F - 3.4 °F 10% 29.96 in 10.0 mi West 5.8 mph - N/A   Clear
8:35 PM 58.8 °F - 3.7 °F 11% 29.96 in 10.0 mi Calm Calm - N/A   Clear
8:55 PM 58.8 °F - 3.9 °F 11% 29.97 in 10.0 mi Calm Calm - N/A   Clear
9:15 PM 58.8 °F - 3.7 °F 11% 29.97 in 10.0 mi Calm Calm - N/A   Clear
9:35 PM 57.0 °F - 3.7 °F 12% 29.97 in 10.0 mi SSE 4.6 mph - N/A   Clear
9:55 PM 56.3 °F - 3.9 °F 12% 29.97 in 10.0 mi Calm Calm - N/A   Clear
10:15 PM 52.7 °F - 4.1 °F 14% 29.97 in 10.0 mi Calm Calm - N/A   Clear
10:35 PM 55.6 °F - 3.7 °F 12% 29.97 in 10.0 mi WNW 8.1 mph - N/A   Clear
10:55 PM 54.7 °F - 3.9 °F 13% 29.97 in 10.0 mi West 12.7 mph 19.6 mph N/A   Clear
11:15 PM 56.5 °F - 3.7 °F 12% 29.97 in 10.0 mi NNW 6.9 mph - N/A   Clear
11:35 PM 51.8 °F - 3.9 °F 14% 29.96 in 10.0 mi North 4.6 mph - N/A   Clear
11:55 PM 55.0 °F - 3.4 °F 12% 29.96 in 10.0 mi West 4.6 mph 16.1 mph N/A   Clear